Regional Weather Roundup
Issued by NWS

Home | Current Version | Previous Version | Graphics & Text | Print | Product List | Glossary On
Versions: 1 2 3 4 5 6 7 8 9 10 11 12 13 14 15 16 17 18 19 20 21 22 23 24 25 26 27 28 29 30 31 32 33 34 35 36 37 38 39 40 41 42 43 44 45 46 47 48 49 50
414
ASUS43 KMKX 100221
RWRWI

WISCONSIN REGIONAL WEATHER ROUNDUP
NATIONAL WEATHER SERVICE MILWAUKEE/SULLIVAN WI
800 PM CST FRI DEC 09 2016

NOTE: "FAIR" INDICATES FEW OR NO CLOUDS BELOW 12,000 FEET WITH NO
SIGNIFICANT WEATHER AND/OR OBSTRUCTIONS TO VISIBILITY.

WIZ001-002-006>008-014>016-023>028-100300-
NORTHWEST WISCONSIN

CITY           SKY/WX    TMP DP  RH WIND       PRES   REMARKS
SUPERIOR ARPT  CLOUDY    11   1  64 NW7       30.49F WCI   1
ASHLAND        LGT SNOW  11   5  77 W7        30.46S WCI   0
HAYWARD        CLOUDY    12   3  67 N3        30.42S
SIREN          CLOUDY    13   5  71 NW8       30.46F WCI   2
CUMBERLAND     CLOUDY    12   3  67 W10       30.43S WCI  -1
RICE LAKE      CLOUDY    15   6  68 W9        30.46S WCI   3
CHETEK         CLOUDY    15   8  75 NW3       30.45S
LADYSMITH      LGT SNOW  15  11  81 W9        30.43S WCI   4
EAU CLAIRE     LGT SNOW  15  12  88 W7        30.45F FOG     WCI   5
MENOMONIE      CLOUDY    17   9  70 W10       30.47S WCI   5
NEW RICHMOND   CLOUDY    15   6  68 W7        30.46F WCI   5
OSCEOLA        CLOUDY    15   6  67 W9        30.50F WCI   3
$$

WIZ003>005-009-010-017-018-100300-
NORTH CENTRAL WISCONSIN

CITY           SKY/WX    TMP DP  RH WIND       PRES   REMARKS
MANITOWISH WTR CLOUDY     9   5  81 NW8       30.36R WCI  -3
ARBOR VITAE    CLOUDY    14   5  68 NW10      30.34F WCI   1
WOODRUFF       CLOUDY    14   5  68 NW10      30.34F WCI   1
RHINELANDER    CLOUDY    15   9  76 NW6       30.35F WCI   6
EAGLE RIVER    CLOUDY    13   4  66 NW9       30.33F WCI   1
LAND O LAKES   FLURRIES  13   8  78 NW6       30.35F WCI   4
PHILLIPS       CLOUDY    12   7  78 NW6       30.37S WCI   3
TOMAHAWK       CLOUDY    14   9  81 CALM      30.37F
MEDFORD        FLURRIES  13   9  83 W6        30.38F WCI   4
MERRILL        CLOUDY    15  11  82 W5        30.39F WCI   8
$$

WIZ029-030-035-036-043>047-100300-
CENTRAL WISCONSIN

CITY           SKY/WX    TMP DP  RH WIND       PRES   REMARKS
WAUSAU         CLOUDY    15   8  73 W10       30.40F WCI   2
MOSINEE        CLOUDY    16   9  73 W8        30.42F WCI   5
MARSHFIELD     LGT SNOW  15  10  80 W13       30.41S WCI   1
STEVENS POINT  CLOUDY    15   8  73 W3        30.43F
WAUPACA        CLOUDY    19  11  73 CALM      30.45F
WAUTOMA        CLOUDY    15  11  83 CALM      30.46F
WISC RAPIDS    CLOUDY    17  11  77 NW3       30.45S
CAMP DOUGLAS   CLEAR     15  10  79 W3        30.46S
$$

WIZ011>013-019>022-031-037>040-048>050-100300-
NORTHEAST WISCONSIN

CITY           SKY/WX    TMP DP  RH WIND       PRES   REMARKS
ANTIGO         FLURRIES  14  11  85 W9        30.36F WCI   2
SHAWANO        CLOUDY    21  10  62 W9        30.43F WCI  11
OCONTO         CLOUDY    19   5  54 NW3       30.44S
STURGEON BAY   CLOUDY    21   8  57 W10G20    30.41F WCI  10
GREEN BAY      CLOUDY    22   9  57 W8        30.44F WCI  12
MANITOWOC      CLEAR     19   9  65 W9        30.45S WCI   8
APPLETON       MOCLDY    16   7  67 W6        30.42F WCI   7
CLINTONVILLE   CLEAR     18   9  68 W3        30.44F
OSHKOSH        CLOUDY    18   8  65 W3        30.45F
$$

WIZ032>034-041-042-053>061-100300-
SOUTHWEST WISCONSIN

CITY           SKY/WX    TMP DP  RH WIND       PRES   REMARKS
LA CROSSE      CLEAR     19  10  68 W10       30.50F WCI   7
SPARTA         CLEAR     18  11  77 W6        30.48F WCI   9
VIROQUA        MOCLDY    14  10  84 W6        30.45F WCI   5
BOSCOBEL       MOCLDY    20  11  68 W7        30.52S WCI  11
PRAIRIE DU CHI CLOUDY    18  10  73 W3        30.53S
PLATTEVILLE    CLEAR     17  14  91 W6        30.49S WCI   8
$$

WIZ056-057-062-063-064-067-068-100300-
SOUTH CENTRAL WISCONSIN

CITY           SKY/WX    TMP DP  RH WIND       PRES   REMARKS
REEDSBURG      CLEAR     17  10  71 W5        30.47S WCI  10
BARABOO/DELLS  PTCLDY    18  10  73 SW5       30.45F WCI  11
LONE ROCK      PTCLDY    20  11  68 W9        30.50F WCI   9
MINERAL POINT  PTCLDY    19  14  79 W6        30.46S WCI  11
MADISON        MOCLDY    19  11  70 W3        30.47F
MIDDLETON      PTCLDY    17  11  78 W5        30.47F WCI  10
WATERTOWN      PTCLDY    17  11  80 CALM      30.47F
MONROE         PTCLDY    18  12  79 W9        30.47S WCI   6
JANESVILLE     PTCLDY    18  12  79 W3        30.49F
$$

WIZ051-052-058>065-066-070>072-100300-
SOUTHEAST WISCONSIN

CITY           SKY/WX    TMP DP  RH WIND       PRES   REMARKS
MILWAUKEE      MOCLDY    22   9  57 W6        30.48F WCI  14
WAUKESHA       PTCLDY    16  10  79 CALM      30.48S
MILWAUKEE/TIMM CLEAR     19   9  63 W5        30.48F WCI  13
RACINE         PTCLDY    20  10  65 W6        30.50F WCI  12
BURLINGTON     CLEAR     23  18  81 W6        30.49S WCI  16
KENOSHA        CLEAR     18  11  74 W6        30.49F WCI  10
FOND DU LAC    CLOUDY    18   7  62 W3        30.46S
SHEBOYGAN      PTCLDY    18   8  65 W6        30.45F WCI  10
WEST BEND      CLEAR     18   9  68 SW3       30.45F
JUNEAU         PTCLDY    15   8  73 CALM      30.47S
$$

LSZ147-162-100300-
LAKE SUPERIOR

STATION/POSITION TIME  TEMP    WIND        PRES    WAVE
                       AIR SEA DIR/SP/G            HT/PER
                 (UTC) (F)     (DEG/KT/KT) (MB)    (FT/S)
DEVILS ISLAND    0100   12     270/ 15/ 21 1033.0R
PORT WING        0130   13     300/ 17/ 20 1031.8F
SAXON HARBOR     0140   13     280/  5/ 10 1031.5S
$$

LMZ867-665-643>646-100300-
LAKE MICHIGAN

STATION/POSITION TIME  TEMP    WIND        PRES    WAVE
                       AIR SEA DIR/SP/G            HT/PER
                 (UTC) (F)     (DEG/KT/KT) (MB)    (FT/S)
CHAMBERS ISLAND  0140   22     260/  7/ 15 1028.8F
NORTHPORT PIER   0151   24     290/  6/ 18 1028.8F
SISTER BAY       0150   23     310/ 18/ 22   N/A
ALGOMA LAKESHORE 0151          290/  9/ 12   N/A
KEWAUNEE LAKESHO 0154   21     310/  7/ 13 1029.7F
SHEBOYGAN LAKESH 0200   21     280/  7/  9 1032.4S
PORT WASHINGTON  0140   20     250/  3/  4 1033.2R
KENOSHA   LAKESH 0100   22     260/  7/  9 1032.8
$$

TC  - TEMPERATURE IN CELSIUS
VSB - VISIBILITY IN STATUTE MILES
WCI - WIND CHILL INDEX
HX  - HEAT INDEX





USA.gov is the U.S. government's official web portal to all federal, state and local government web resources and services.